Home   Weather   Charlestown   Past weeks
Flag for Saint Kitts and Nevis

Past Weather in Charlestown, Saint Kitts and Nevis — Yesterday and Last 2 Weeks

Now
72 °F

Mild.


Feels Like: 71 °F
Forecast: 81 / 75 °F
Wind: 3 mph from East

Location: Roosevelt Airport / Saint Eustatius

Current Time: Apr 1, 2020 at 6:33:52 am

Latest Report: Apr 1, 2020 at 5:55 am


Visibility: N/A

Pressure: 29.92 "Hg

Humidity: 83%

Dew Point: 66 °F

Location of CharlestownLocation

Past Weather in Charlestown — Graph

°F

Charlestown Temperature Yesterday

Maximum temperature yesterday: 82 °F (at 1:55 pm)
Minimum temperature yesterday: 75 °F (at 12:55 am)
Average temperature yesterday: 78 °F

High & Low Weather Summary for the Past Weeks

 TemperatureHumidityPressure
High84 °F (Mar 17, 10:55 am)94% (Mar 17, 4:55 am)30.15 "Hg (Mar 17, 4:55 am)
Low70 °F (Mar 17, 4:55 am)58% (Mar 17, 1:55 pm)29.89 "Hg (Mar 27, 2:55 am)
Average78 °F74%30.02 "Hg
* Reported Mar 17 4:55 am — Apr 1 4:55 am, Charlestown. Weather by CustomWeather, © 2020

Note: Actual official high and low records may vary slightly from our data, if they occured in-between our weather recording intervals... More about our weather records

Charlestown Weather History for the Previous 24 Hours

Scroll right to see more
 ConditionsComfort  
Time TempWeatherWind HumidityBarometerVisibility
4:55 am
Wed, Apr 1
73 °FMild.8 mph78%29.89 "HgN/A
3:55 am73 °FMild.7 mph78%29.89 "HgN/A
2:55 am73 °FMild.7 mph78%29.89 "HgN/A
1:55 am75 °FMild.8 mph74%29.89 "HgN/A
12:55 am75 °FMild.10 mph74%29.92 "HgN/A
11:55 pm
Tue, Mar 31
75 °FMild.10 mph74%29.92 "HgN/A
10:55 pm75 °FMild.10 mph74%29.95 "HgN/A
9:55 pm75 °FMild.9 mph78%29.95 "HgN/A
8:55 pm75 °FMild.10 mph78%29.95 "HgN/A
7:55 pm75 °FMild.7 mph78%29.92 "HgN/A
6:55 pm75 °FMild.8 mph78%29.92 "HgN/A
5:55 pm77 °FWarm.7 mph69%29.92 "HgN/A
4:55 pm81 °FWarm.10 mph62%29.92 "HgN/A
3:55 pm81 °FWarm.10 mph66%29.92 "HgN/A
2:55 pm81 °FWarm.12 mph62%29.92 "HgN/A
1:55 pm82 °FWarm.13 mph62%29.92 "HgN/A
12:55 pm81 °FWarm.12 mph62%29.95 "HgN/A
11:55 am81 °FWarm.13 mph66%29.98 "HgN/A
10:55 am81 °FWarm.13 mph66%29.98 "HgN/A
9:55 am79 °FWarm.13 mph65%30.01 "HgN/A
8:55 am81 °FWarm.13 mph66%29.98 "HgN/A
7:55 am79 °FWarm.13 mph70%29.98 "HgN/A
6:55 am77 °FWarm.12 mph74%29.95 "HgN/A
Weather by CustomWeather, © 2020

See weather overview

Advertising